Las Vegas, NM

12:15 PM MDT on May 24, 2017 (GMT -0600)
Las Vegas Municipal

Weather History for KLVS - October, 2011

Change the Weather History Date:

Monday, October 3, 2011

  Actual Average Record
Temperature  
Mean Temperature 59 °F -  
Max Temperature 75 °F 71 °F 84 °F (2000)
Min Temperature 46 °F 40 °F 28 °F (1971)
Degree Days  
Heating Degree Days 6    
Growing Degree Days 9 (Base 50)    
Moisture  
Dew Point 42 °F    
Average Humidity 61    
Maximum Humidity 86    
Minimum Humidity 29    
Precipitation  
Precipitation 0.10 in - - ()
Sea Level Pressure  
Sea Level Pressure 30.11 in    
Wind  
Wind Speed 8 mph (SSW)    
Max Wind Speed 24 mph    
Max Gust Speed 36 mph    
Visibility 10 miles    
Events Rain , Thunderstorm    
Averages and records for this station are not official NWS values.
T = Trace of Precipitation, MM = Missing Value Source: NWS Daily Summary

Daily Weather History Graph

Daily Weather History Graph

Search for Another Location

Airport or City:

Trip Planner

Search our weather history database for the weather conditions in past years. The results will help you decide how hot, cold, wet, or windy it might be!

Date:

Astronomy

Oct. 03, 2011 Rise Set
Actual Time 6:56 AM MDT 6:41 PM MDT
Civil Twilight 6:31 AM MDT 7:07 PM MDT
Nautical Twilight 6:01 AM MDT 7:36 PM MDT
Astronomical Twilight 5:32 AM MDT 8:06 PM MDT
Moon 1:46 PM MDT (10/3) 11:57 PM MDT (10/3)
Length of Visible Light 12h 35m
Length of Day
11h 44m
Waxing Crescent, 46% of the Moon is Illuminated
Oct 3
Waxing Crescent
Oct 3
First Quarter
Oct 11
Full
Oct 19
Last Quarter
Oct 26
New

Hourly Weather History & Observations

Time (MDT) Temp. Dew Point Humidity Pressure Visibility Wind Dir Wind Speed Gust Speed Precip Events Conditions
1:53 AM 52.0 °F 37.9 °F 59% 30.02 in 10.0 mi South 5.8 mph - N/A   Partly Cloudy
2:53 AM 51.1 °F 37.0 °F 59% 30.02 in 10.0 mi South 5.8 mph - N/A   Unknown
3:53 AM 48.9 °F 37.9 °F 66% 30.03 in 10.0 mi South 10.4 mph - N/A   Clear
4:53 AM 50.0 °F 37.9 °F 63% 30.03 in 10.0 mi South 6.9 mph - N/A   Clear
5:53 AM 50.0 °F 37.9 °F 63% 30.04 in 10.0 mi SSE 6.9 mph - N/A   Clear
6:53 AM 46.9 °F 37.0 °F 68% 30.10 in 10.0 mi ESE 4.6 mph - N/A   Clear
7:53 AM 50.0 °F 37.0 °F 61% 30.11 in 10.0 mi Calm Calm - N/A   Clear
8:53 AM 60.1 °F 37.9 °F 44% 30.08 in 10.0 mi Calm Calm - N/A   Unknown
9:53 AM 66.9 °F 39.0 °F 36% 30.08 in 10.0 mi SSW 6.9 mph - N/A   Overcast
10:53 AM 69.1 °F 39.0 °F 33% 30.07 in 10.0 mi SSW 10.4 mph - N/A   Clear
12:53 PM 72.0 °F 37.9 °F 29% 30.04 in 10.0 mi South 16.1 mph 21.9 mph N/A   Mostly Cloudy
1:53 PM 72.0 °F 37.9 °F 29% 30.02 in 10.0 mi South 21.9 mph 28.8 mph N/A Thunderstorm Mostly Cloudy
2:08 PM 66.2 °F 41.0 °F 40% 30.30 in 10.0 mi WSW 24.2 mph 35.7 mph N/A   Overcast
2:53 PM 63.0 °F 46.0 °F 54% 30.07 in 10.0 mi South 6.9 mph - 0.02 in Rain Light Rain
3:37 PM 62.6 °F 46.4 °F 55% 30.33 in 10.0 mi Calm Calm - 0.01 in Thunderstorm Thunderstorm
3:53 PM 59.0 °F 46.9 °F 64% 30.13 in 10.0 mi SSE 11.5 mph 17.3 mph 0.01 in Thunderstorm Overcast
4:04 PM 55.4 °F 48.2 °F 77% 30.34 in 8.0 mi Calm Calm - 0.00 in Rain Light Rain
4:53 PM 55.9 °F 46.9 °F 72% 30.12 in 10.0 mi WNW 9.2 mph - 0.02 in Rain Light Rain
5:53 PM 55.0 °F 50.0 °F 83% 30.13 in 10.0 mi WSW 10.4 mph - 0.04 in Rain Light Rain
7:53 PM 54.0 °F 48.9 °F 83% 30.12 in 10.0 mi WNW 11.5 mph - 0.01 in   Overcast
8:53 PM 53.1 °F 48.0 °F 83% 30.09 in 10.0 mi WNW 10.4 mph - 0.00 in   Overcast
9:53 PM 53.1 °F 46.9 °F 80% 30.07 in 10.0 mi NW 8.1 mph - N/A   Overcast
10:53 PM 50.0 °F 46.0 °F 86% 30.06 in 10.0 mi West 3.5 mph - N/A   Clear
11:53 PM 48.9 °F 44.1 °F 83% 30.33 in 10.0 mi SE 4.6 mph - N/A   Clear